| time (UTC) | temp F | wind direction | speed MPH | gust MPH | rain 1hr in | rain 24hr in | rain mn in | humidity % | barometer mb |
| 20260505223510 | 72 | 200 | 2.0 | 7.0 | 0.00 | 0.00 | 0.00 | 47 | 1006.9 |
| 20260505223028 | 72 | 192 | 2.0 | 8.0 | 0.00 | 0.00 | 0.00 | 47 | 1006.8 |
| 20260505222511 | 73 | 192 | 4.0 | 12.0 | 0.00 | 0.00 | 0.00 | 46 | 1006.7 |
| 20260505222009 | 73 | 183 | 4.0 | 12.0 | 0.00 | 0.00 | 0.00 | 46 | 1006.7 |
| 20260505221528 | 73 | 201 | 5.0 | 15.0 | 0.00 | 0.00 | 0.00 | 46 | 1006.7 |
| 20260505221009 | 73 | 205 | 6.0 | 17.0 | 0.00 | 0.00 | 0.00 | 45 | 1006.6 |
| 20260505220512 | 73 | 198 | 7.0 | 22.0 | 0.00 | 0.00 | 0.00 | 45 | 1006.7 |
| 20260505220027 | 74 | 196 | 9.0 | 22.0 | 0.00 | 0.00 | 0.00 | 45 | 1006.7 |
| 20260505215510 | 74 | 221 | 9.0 | 21.0 | 0.00 | 0.00 | 0.00 | 44 | 1006.6 |
| 20260505215012 | 74 | 171 | 6.0 | 19.0 | 0.00 | 0.00 | 0.00 | 45 | 1006.6 |
| 20260505214536 | 74 | 211 | 9.0 | 17.0 | 0.00 | 0.00 | 0.00 | 45 | 1006.5 |
| 20260505214015 | 74 | 151 | 8.0 | 17.0 | 0.00 | 0.00 | 0.00 | 44 | 1006.4 |
| 20260505213510 | 74 | 195 | 6.0 | 21.0 | 0.00 | 0.00 | 0.00 | 46 | 1006.4 |
| 20260505213027 | 74 | 211 | 9.0 | 24.0 | 0.00 | 0.00 | 0.00 | 46 | 1006.5 |
| 20260505212515 | 75 | 236 | 11.0 | 24.0 | 0.00 | 0.00 | 0.00 | 44 | 1006.5 |
| 20260505212013 | 75 | 192 | 8.0 | 19.0 | 0.00 | 0.00 | 0.00 | 44 | 1006.4 |
| 20260505211539 | 75 | 172 | 7.0 | 18.0 | 0.00 | 0.00 | 0.00 | 44 | 1006.3 |
| 20260505211013 | 75 | 221 | 8.0 | 19.0 | 0.00 | 0.00 | 0.00 | 44 | 1006.3 |
| 20260505210516 | 75 | 212 | 8.0 | 19.0 | 0.00 | 0.00 | 0.00 | 46 | 1006.4 |
| 20260505210029 | 76 | 228 | 8.0 | 19.0 | 0.00 | 0.00 | 0.00 | 43 | 1006.2 |
| 20260505205514 | 76 | 195 | 8.0 | 18.0 | 0.00 | 0.00 | 0.00 | 43 | 1006.1 |
| 20260505205012 | 77 | 200 | 9.0 | 21.0 | 0.00 | 0.00 | 0.00 | 44 | 1006.0 |
| 20260505204010 | 75 | 298 | 8.0 | 18.0 | 0.00 | 0.00 | 0.00 | 44 | 1005.9 |
| 20260505203511 | 75 | 223 | 7.0 | 19.0 | 0.00 | 0.00 | 0.00 | 44 | 1006.0 |
| 20260505203037 | 74 | 206 | 6.0 | 25.0 | 0.00 | 0.00 | 0.00 | 45 | 1006.0 |
| 20260505202514 | 74 | 223 | 9.0 | 25.0 | 0.00 | 0.00 | 0.00 | 44 | 1006.1 |
| 20260505202012 | 74 | 221 | 12.0 | 25.0 | 0.00 | 0.00 | 0.00 | 43 | 1006.0 |
| 20260505201528 | 74 | 182 | 11.0 | 22.0 | 0.00 | 0.00 | 0.00 | 43 | 1006.1 |
| 20260505201015 | 74 | 153 | 11.0 | 22.0 | 0.00 | 0.00 | 0.00 | 43 | 1006.1 |
| 20260505200512 | 74 | 215 | 8.0 | 17.0 | 0.00 | 0.00 | 0.00 | 44 | 1005.9 |
| 20260505200030 | 74 | 205 | 9.0 | 17.0 | 0.00 | 0.00 | 0.00 | 44 | 1005.9 |
| 20260505195511 | 74 | 204 | 8.0 | 17.0 | 0.00 | 0.00 | 0.00 | 45 | 1005.8 |
| 20260505195013 | 74 | 222 | 9.0 | 21.0 | 0.00 | 0.00 | 0.00 | 45 | 1005.8 |
| 20260505194528 | 75 | 189 | 10.0 | 21.0 | 0.00 | 0.00 | 0.00 | 44 | 1005.8 |
| 20260505194016 | 75 | 182 | 10.0 | 19.0 | 0.00 | 0.00 | 0.00 | 44 | 1005.8 |
| 20260505193513 | 76 | 230 | 10.0 | 19.0 | 0.00 | 0.00 | 0.00 | 43 | 1005.7 |
| 20260505193027 | 76 | 170 | 12.0 | 19.0 | 0.00 | 0.00 | 0.00 | 43 | 1005.8 |
| 20260505192512 | 76 | 178 | 8.0 | 18.0 | 0.00 | 0.00 | 0.00 | 44 | 1005.8 |
| 20260505192013 | 76 | 174 | 10.0 | 27.0 | 0.00 | 0.00 | 0.00 | 43 | 1005.8 |
| 20260505191528 | 76 | 200 | 12.0 | 27.0 | 0.00 | 0.00 | 0.00 | 43 | 1005.9 |
| 20260505191011 | 76 | 202 | 12.0 | 25.0 | 0.00 | 0.00 | 0.00 | 44 | 1006.2 |
| 20260505190512 | 76 | 185 | 10.0 | 23.0 | 0.00 | 0.00 | 0.00 | 45 | 1006.2 |
| 20260505190034 | 76 | 184 | 13.0 | 27.0 | 0.00 | 0.00 | 0.00 | 44 | 1006.5 |
| 20260505185517 | 76 | 214 | 14.0 | 27.0 | 0.00 | 0.00 | 0.00 | 43 | 1006.5 |
| 20260505185012 | 76 | 192 | 13.0 | 26.0 | 0.00 | 0.00 | 0.00 | 43 | 1006.8 |
| 20260505184542 | 76 | 244 | 11.0 | 21.0 | 0.00 | 0.00 | 0.00 | 43 | 1006.5 |
| 20260505184016 | 76 | 229 | 10.0 | 21.0 | 0.00 | 0.00 | 0.00 | 44 | 1006.6 |
| 20260505183513 | 76 | 168 | 11.0 | 20.0 | 0.00 | 0.00 | 0.00 | 42 | 1006.7 |
| 20260505183037 | 76 | 197 | 7.0 | 18.0 | 0.00 | 0.00 | 0.00 | 46 | 1006.7 |
| 20260505182512 | 76 | 230 | 10.0 | 19.0 | 0.00 | 0.00 | 0.00 | 44 | 1006.8 |
| 20260505182014 | 75 | 186 | 11.0 | 23.0 | 0.00 | 0.00 | 0.00 | 43 | 1006.7 |
| 20260505181530 | 76 | 202 | 10.0 | 26.0 | 0.00 | 0.00 | 0.00 | 44 | 1006.9 |
| 20260505181012 | 75 | 184 | 13.0 | 26.0 | 0.00 | 0.00 | 0.00 | 43 | 1007.0 |
| 20260505180516 | 75 | 177 | 11.0 | 26.0 | 0.00 | 0.00 | 0.00 | 46 | 1007.2 |
| 20260505180029 | 76 | 263 | 9.0 | 26.0 | 0.00 | 0.00 | 0.00 | 45 | 1007.2 |
| 20260505175514 | 76 | 215 | 12.0 | 24.0 | 0.00 | 0.00 | 0.00 | 43 | 1007.4 |
| 20260505175013 | 76 | 171 | 10.0 | 19.0 | 0.00 | 0.00 | 0.00 | 45 | 1007.4 |
| 20260505174529 | 75 | 211 | 6.0 | 16.0 | 0.00 | 0.00 | 0.00 | 49 | 1007.2 |
| 20260505174011 | 75 | 209 | 7.0 | 16.0 | 0.00 | 0.00 | 0.00 | 45 | 1007.5 |
| 20260505173512 | 75 | 238 | 9.0 | 21.0 | 0.00 | 0.00 | 0.00 | 45 | 1007.5 |
| 20260505173029 | 74 | 226 | 8.0 | 21.0 | 0.00 | 0.00 | 0.00 | 45 | 1007.4 |
| 20260505172511 | 75 | 219 | 11.0 | 21.0 | 0.00 | 0.00 | 0.00 | 45 | 1007.6 |
| 20260505172013 | 75 | 232 | 13.0 | 21.0 | 0.00 | 0.00 | 0.00 | 45 | 1007.2 |
| 20260505171528 | 75 | 217 | 11.0 | 19.0 | 0.00 | 0.00 | 0.00 | 46 | 1007.2 |
| 20260505171014 | 75 | 221 | 8.0 | 20.0 | 0.00 | 0.00 | 0.00 | 49 | 1007.4 |
| 20260505170512 | 74 | 168 | 11.0 | 20.0 | 0.00 | 0.00 | 0.00 | 48 | 1007.6 |
| 20260505170035 | 74 | 177 | 9.0 | 15.0 | 0.00 | 0.00 | 0.00 | 48 | 1007.4 |
| 20260505165514 | 74 | 262 | 6.0 | 15.0 | 0.00 | 0.00 | 0.00 | 48 | 1007.5 |
| 20260505165013 | 74 | 217 | 8.0 | 15.0 | 0.00 | 0.00 | 0.00 | 49 | 1007.5 |
| 20260505164534 | 73 | 223 | 5.0 | 20.0 | 0.00 | 0.00 | 0.00 | 51 | 1007.7 |
| 20260505164011 | 73 | 216 | 6.0 | 20.0 | 0.00 | 0.00 | 0.00 | 51 | 1007.7 |
| 20260505163513 | 74 | 204 | 10.0 | 19.0 | 0.00 | 0.00 | 0.00 | 51 | 1007.9 |
| 20260505163028 | 74 | 223 | 9.0 | 19.0 | 0.00 | 0.00 | 0.00 | 50 | 1007.9 |
| 20260505162518 | 74 | 182 | 11.0 | 19.0 | 0.00 | 0.00 | 0.00 | 49 | 1008.0 |
| 20260505162012 | 74 | 220 | 8.0 | 23.0 | 0.00 | 0.00 | 0.00 | 51 | 1007.9 |
| 20260505161530 | 74 | 190 | 8.0 | 26.0 | 0.00 | 0.00 | 0.00 | 52 | 1007.9 |
| 20260505161011 | 74 | 188 | 9.0 | 26.0 | 0.00 | 0.00 | 0.00 | 53 | 1008.0 |
| 20260505160516 | 73 | 215 | 6.0 | 21.0 | 0.00 | 0.00 | 0.00 | 54 | 1008.0 |
| 20260505153028 | 72 | 171 | 9.0 | 24.0 | 0.00 | 0.00 | 0.00 | 54 | 1008.6 |
| 20260505152513 | 72 | 199 | 11.0 | 24.0 | 0.00 | 0.00 | 0.00 | 53 | 1008.6 |
| 20260505152011 | 72 | 200 | 7.0 | 22.0 | 0.00 | 0.00 | 0.00 | 56 | 1008.4 |
| 20260505151535 | 71 | 193 | 13.0 | 22.0 | 0.00 | 0.00 | 0.00 | 55 | 1008.5 |
| 20260505151010 | 71 | 197 | 12.0 | 20.0 | 0.00 | 0.00 | 0.00 | 55 | 1008.6 |
| 20260505150513 | 71 | 202 | 9.0 | 18.0 | 0.00 | 0.00 | 0.00 | 57 | 1008.6 |
| 20260505140512 | 67 | 226 | 6.0 | 12.0 | 0.00 | 0.00 | 0.00 | 59 | 1008.7 |
| 20260505125013 | 64 | 186 | 7.0 | 14.0 | 0.00 | 0.00 | 0.00 | 64 | 1009.3 |
| 20260505124528 | 64 | 175 | 6.0 | 14.0 | 0.00 | 0.00 | 0.00 | 65 | 1009.2 |
| 20260505124014 | 64 | 232 | 6.0 | 13.0 | 0.00 | 0.00 | 0.00 | 65 | 1009.2 |
| 20260505123512 | 63 | 188 | 7.0 | 13.0 | 0.00 | 0.00 | 0.00 | 65 | 1009.4 |
| 20260505123030 | 63 | 190 | 8.0 | 13.0 | 0.00 | 0.00 | 0.00 | 65 | 1009.3 |
| 20260505122513 | 63 | 221 | 7.0 | 13.0 | 0.00 | 0.00 | 0.00 | 66 | 1009.1 |
| 20260505122015 | 63 | 188 | 5.0 | 13.0 | 0.00 | 0.00 | 0.00 | 66 | 1009.1 |
| 20260505121536 | 63 | 169 | 6.0 | 14.0 | 0.00 | 0.00 | 0.00 | 66 | 1009.0 |
| 20260505121010 | 63 | 234 | 7.0 | 14.0 | 0.00 | 0.00 | 0.00 | 67 | 1009.0 |
| 20260505120510 | 62 | 182 | 5.0 | 13.0 | 0.00 | 0.00 | 0.00 | 67 | 1009.0 |
| 20260505120029 | 62 | 178 | 7.0 | 13.0 | 0.00 | 0.00 | 0.00 | 68 | 1009.0 |
| 20260505115511 | 62 | 163 | 5.0 | 11.0 | 0.00 | 0.00 | 0.00 | 68 | 1009.1 |
| 20260505115011 | 61 | 180 | 5.0 | 11.0 | 0.00 | 0.00 | 0.00 | 68 | 1009.2 |
| 20260505114528 | 61 | 159 | 3.0 | 10.0 | 0.00 | 0.00 | 0.00 | 69 | 1009.1 |
| 20260505114012 | 61 | 208 | 4.0 | 10.0 | 0.00 | 0.00 | 0.00 | 69 | 1009.3 |
| 20260505113511 | 60 | 169 | 3.0 | 10.0 | 0.00 | 0.00 | 0.00 | 70 | 1009.2 |
| 20260505113039 | 60 | 205 | 3.0 | 7.0 | 0.00 | 0.00 | 0.00 | 71 | 1008.9 |
| 20260505112513 | 59 | 185 | 1.0 | 5.0 | 0.00 | 0.00 | 0.00 | 71 | 1008.9 |
| 20260505112011 | 59 | 169 | 2.0 | 5.0 | 0.00 | 0.00 | 0.00 | 71 | 1008.9 |
| 20260505111540 | 58 | 159 | 1.0 | 5.0 | 0.00 | 0.00 | 0.00 | 72 | 1008.9 |
| 20260505111017 | 58 | 149 | 2.0 | 9.0 | 0.00 | 0.00 | 0.00 | 72 | 1008.8 |
| 20260505110511 | 58 | 135 | 4.0 | 9.0 | 0.00 | 0.00 | 0.00 | 72 | 1008.8 |
| 20260505102011 | 53 | 0 | 0.0 | 0.0 | 0.00 | 0.00 | 0.00 | 80 | 1008.3 |
| 20260505101013 | 53 | 0 | 0.0 | 0.0 | 0.00 | 0.00 | 0.00 | 79 | 1008.3 |
| 20260505100513 | 54 | 0 | 0.0 | 0.0 | 0.00 | 0.00 | 0.00 | 79 | 1008.3 |
| 20260505095512 | 55 | 0 | 0.0 | 1.0 | 0.00 | 0.00 | 0.00 | 78 | 1008.2 |
| 20260505095013 | 55 | 0 | 0.0 | 4.0 | 0.00 | 0.00 | 0.00 | 77 | 1008.2 |
| 20260505094528 | 55 | 0 | 1.0 | 4.0 | 0.00 | 0.00 | 0.00 | 75 | 1008.1 |
| 20260505094012 | 55 | 192 | 1.0 | 3.0 | 0.00 | 0.00 | 0.00 | 75 | 1008.1 |
| 20260505093512 | 56 | 190 | 1.0 | 3.0 | 0.00 | 0.00 | 0.00 | 73 | 1008.1 |
| 20260505093039 | 57 | 180 | 1.0 | 6.0 | 0.00 | 0.00 | 0.00 | 72 | 1008.1 |
| 20260505092513 | 57 | 179 | 1.0 | 7.0 | 0.00 | 0.00 | 0.00 | 71 | 1008.0 |
| 20260505092013 | 57 | 166 | 3.0 | 7.0 | 0.00 | 0.00 | 0.00 | 71 | 1008.0 |
| 20260505091530 | 57 | 198 | 2.0 | 5.0 | 0.00 | 0.00 | 0.00 | 71 | 1008.0 |
| 20260505091011 | 57 | 176 | 2.0 | 4.0 | 0.00 | 0.00 | 0.00 | 71 | 1007.9 |
| 20260505090511 | 57 | 174 | 1.0 | 3.0 | 0.00 | 0.00 | 0.00 | 71 | 1007.9 |
| 20260505090032 | 57 | 174 | 1.0 | 5.0 | 0.00 | 0.00 | 0.00 | 70 | 1007.8 |
| 20260505085513 | 57 | 173 | 1.0 | 5.0 | 0.00 | 0.00 | 0.00 | 69 | 1007.8 |
| 20260505085011 | 57 | 178 | 2.0 | 5.0 | 0.00 | 0.00 | 0.00 | 69 | 1007.8 |
| 20260505084530 | 57 | 158 | 2.0 | 4.0 | 0.00 | 0.00 | 0.00 | 69 | 1007.8 |
| 20260505084011 | 57 | 162 | 1.0 | 5.0 | 0.00 | 0.00 | 0.00 | 70 | 1007.8 |
| 20260505083512 | 56 | 161 | 1.0 | 5.0 | 0.00 | 0.00 | 0.00 | 70 | 1007.8 |
| 20260505083036 | 56 | 153 | 1.0 | 7.0 | 0.00 | 0.00 | 0.00 | 70 | 1007.9 |
| 20260505082512 | 56 | 169 | 2.0 | 7.0 | 0.00 | 0.00 | 0.00 | 71 | 1008.0 |
| 20260505082014 | 55 | 180 | 2.0 | 5.0 | 0.00 | 0.00 | 0.00 | 74 | 1008.1 |
| 20260505081530 | 54 | 159 | 1.0 | 4.0 | 0.00 | 0.00 | 0.00 | 76 | 1008.2 |
| 20260505081015 | 54 | 159 | 1.0 | 4.0 | 0.00 | 0.00 | 0.00 | 74 | 1008.1 |
| 20260505080543 | 54 | 177 | 0.0 | 1.0 | 0.00 | 0.00 | 0.00 | 74 | 1008.0 |
| 20260505080030 | 55 | 0 | 0.0 | 0.0 | 0.00 | 0.00 | 0.00 | 74 | 1008.1 |
| 20260505075512 | 56 | 0 | 0.0 | 1.0 | 0.00 | 0.00 | 0.00 | 70 | 1007.9 |
| 20260505075012 | 55 | 0 | 0.0 | 2.0 | 0.00 | 0.00 | 0.00 | 71 | 1007.7 |
| 20260505074529 | 55 | 177 | 0.0 | 2.0 | 0.00 | 0.00 | 0.00 | 71 | 1007.8 |
| 20260505074012 | 55 | 178 | 0.0 | 4.0 | 0.00 | 0.00 | 0.00 | 72 | 1007.8 |
| 20260505073509 | 55 | 0 | 0.0 | 4.0 | 0.00 | 0.00 | 0.00 | 71 | 1007.8 |
| 20260505073030 | 55 | 184 | 0.0 | 3.0 | 0.00 | 0.00 | 0.00 | 73 | 1007.8 |
| 20260505072511 | 55 | 175 | 1.0 | 3.0 | 0.00 | 0.00 | 0.00 | 73 | 1008.0 |
| 20260505072009 | 55 | 0 | 0.0 | 2.0 | 0.00 | 0.00 | 0.00 | 72 | 1008.0 |
| 20260505071529 | 56 | 0 | 1.0 | 2.0 | 0.00 | 0.00 | 0.00 | 68 | 1008.0 |
| 20260505071013 | 56 | 0 | 0.0 | 3.0 | 0.00 | 0.00 | 0.00 | 68 | 1007.9 |
| 20260505070513 | 56 | 175 | 0.0 | 3.0 | 0.00 | 0.00 | 0.00 | 66 | 1008.0 |
| 20260505070030 | 57 | 175 | 1.0 | 3.0 | 0.00 | 0.00 | 0.00 | 66 | 1007.9 |
| 20260505065513 | 57 | 175 | 1.0 | 4.0 | 0.00 | 0.00 | 0.00 | 65 | 1007.9 |
| 20260505065013 | 57 | 193 | 1.0 | 4.0 | 0.00 | 0.00 | 0.00 | 66 | 1008.0 |
| 20260505064527 | 57 | 193 | 1.0 | 6.0 | 0.00 | 0.00 | 0.00 | 66 | 1008.1 |
| 20260505064011 | 56 | 189 | 2.0 | 6.0 | 0.00 | 0.00 | 0.00 | 66 | 1008.1 |
| 20260505063512 | 56 | 195 | 0.0 | 4.0 | 0.00 | 0.00 | 0.00 | 67 | 1008.0 |
| 20260505063029 | 56 | 195 | 1.0 | 5.0 | 0.00 | 0.00 | 0.00 | 66 | 1008.1 |
| 20260505062511 | 56 | 195 | 1.0 | 5.0 | 0.00 | 0.00 | 0.00 | 66 | 1008.0 |
| 20260505062010 | 57 | 204 | 2.0 | 4.0 | 0.00 | 0.00 | 0.00 | 65 | 1008.1 |
| 20260505061529 | 57 | 177 | 1.0 | 4.0 | 0.00 | 0.00 | 0.00 | 65 | 1008.2 |
| 20260505061013 | 57 | 178 | 1.0 | 4.0 | 0.00 | 0.00 | 0.00 | 65 | 1008.1 |
| 20260505060511 | 57 | 178 | 1.0 | 4.0 | 0.00 | 0.00 | 0.00 | 64 | 1008.3 |
| 20260505060026 | 57 | 184 | 1.0 | 6.0 | 0.00 | 0.00 | 0.00 | 63 | 1008.2 |
| 20260505055511 | 57 | 182 | 2.0 | 6.0 | 0.00 | 0.00 | 0.00 | 63 | 1008.2 |
| 20260505055013 | 57 | 164 | 1.0 | 6.0 | 0.00 | 0.00 | 0.00 | 63 | 1008.3 |
| 20260505054541 | 57 | 178 | 2.0 | 7.0 | 0.00 | 0.00 | 0.00 | 63 | 1008.3 |
| 20260505054015 | 58 | 187 | 3.0 | 7.0 | 0.00 | 0.00 | 0.00 | 63 | 1008.4 |
| 20260505053513 | 58 | 178 | 2.0 | 6.0 | 0.00 | 0.00 | 0.00 | 64 | 1008.4 |
| 20260505053029 | 58 | 195 | 3.0 | 6.0 | 0.00 | 0.00 | 0.00 | 62 | 1008.4 |
| 20260505052512 | 58 | 209 | 3.0 | 6.0 | 0.00 | 0.00 | 0.00 | 62 | 1008.3 |
| 20260505052012 | 58 | 190 | 2.0 | 6.0 | 0.00 | 0.00 | 0.00 | 63 | 1008.4 |
| 20260505051528 | 58 | 166 | 3.0 | 8.0 | 0.00 | 0.00 | 0.00 | 62 | 1008.3 |
| 20260505051014 | 58 | 184 | 1.0 | 8.0 | 0.00 | 0.00 | 0.00 | 62 | 1008.4 |
| 20260505050514 | 59 | 201 | 3.0 | 8.0 | 0.00 | 0.00 | 0.00 | 60 | 1008.3 |
| 20260505041531 | 57 | 177 | 2.0 | 6.0 | 0.00 | 0.00 | 0.00 | 65 | 1008.0 |
| 20260505041013 | 56 | 207 | 2.0 | 6.0 | 0.00 | 0.00 | 0.00 | 66 | 1008.1 |
| 20260505040513 | 56 | 180 | 1.0 | 4.0 | 0.00 | 0.00 | 0.00 | 67 | 1008.1 |
| 20260505040040 | 56 | 182 | 2.0 | 4.0 | 0.00 | 0.00 | 0.00 | 67 | 1008.0 |
| 20260505035514 | 55 | 0 | 0.0 | 1.0 | 0.00 | 0.00 | 0.00 | 68 | 1008.0 |
| 20260505035013 | 55 | 0 | 0.0 | 0.0 | 0.00 | 0.00 | 0.00 | 67 | 1008.0 |
| 20260505034536 | 55 | 0 | 0.0 | 3.0 | 0.00 | 0.00 | 0.00 | 68 | 1008.0 |
| 20260505034013 | 55 | 0 | 0.0 | 3.0 | 0.00 | 0.00 | 0.00 | 68 | 1008.0 |
| 20260505033513 | 56 | 0 | 0.0 | 3.0 | 0.00 | 0.00 | 0.00 | 67 | 1007.9 |
| 20260505033030 | 57 | 174 | 1.0 | 4.0 | 0.00 | 0.00 | 0.00 | 64 | 1007.8 |
| 20260505032513 | 58 | 174 | 2.0 | 5.0 | 0.00 | 0.00 | 0.00 | 62 | 1007.9 |
| 20260505032013 | 57 | 174 | 1.0 | 5.0 | 0.00 | 0.00 | 0.00 | 63 | 1008.0 |
| 20260505031533 | 57 | 174 | 1.0 | 5.0 | 0.00 | 0.00 | 0.00 | 64 | 1008.1 |
| 20260505031013 | 57 | 179 | 1.0 | 3.0 | 0.00 | 0.00 | 0.00 | 62 | 1008.1 |
| 20260505030513 | 58 | 0 | 0.0 | 5.0 | 0.00 | 0.00 | 0.00 | 61 | 1008.1 |
| 20260505030028 | 59 | 182 | 1.0 | 5.0 | 0.00 | 0.00 | 0.00 | 59 | 1008.1 |
| 20260505025516 | 59 | 185 | 2.0 | 5.0 | 0.00 | 0.00 | 0.00 | 59 | 1008.1 |
| 20260505025011 | 59 | 171 | 2.0 | 6.0 | 0.00 | 0.00 | 0.00 | 60 | 1008.3 |
| 20260505024528 | 58 | 171 | 1.0 | 6.0 | 0.00 | 0.00 | 0.00 | 61 | 1008.3 |
| 20260505024012 | 57 | 165 | 1.0 | 4.0 | 0.00 | 0.00 | 0.00 | 63 | 1008.3 |
| 20260505023512 | 57 | 0 | 0.0 | 3.0 | 0.00 | 0.00 | 0.00 | 65 | 1008.3 |
| 20260505023028 | 58 | 0 | 1.0 | 5.0 | 0.00 | 0.00 | 0.00 | 63 | 1008.3 |
| 20260505022510 | 58 | 166 | 1.0 | 6.0 | 0.00 | 0.00 | 0.00 | 61 | 1008.3 |
| 20260505022011 | 59 | 166 | 2.0 | 6.0 | 0.00 | 0.00 | 0.00 | 58 | 1008.4 |
| 20260505021529 | 59 | 160 | 2.0 | 6.0 | 0.00 | 0.00 | 0.00 | 58 | 1008.4 |
| 20260505021016 | 60 | 191 | 1.0 | 4.0 | 0.00 | 0.00 | 0.00 | 56 | 1008.3 |
| 20260505020512 | 60 | 192 | 1.0 | 5.0 | 0.00 | 0.00 | 0.00 | 56 | 1008.3 |
| 20260505020037 | 61 | 192 | 2.0 | 6.0 | 0.00 | 0.00 | 0.00 | 55 | 1008.2 |
| 20260505015513 | 61 | 180 | 3.0 | 6.0 | 0.00 | 0.00 | 0.00 | 55 | 1008.2 |
| 20260505015016 | 61 | 179 | 2.0 | 7.0 | 0.00 | 0.00 | 0.00 | 55 | 1008.2 |
| 20260505014530 | 62 | 177 | 2.0 | 7.0 | 0.00 | 0.00 | 0.00 | 53 | 1008.2 |
| 20260505014014 | 62 | 191 | 2.0 | 6.0 | 0.00 | 0.00 | 0.00 | 53 | 1008.2 |
| 20260505013512 | 62 | 195 | 2.0 | 12.0 | 0.00 | 0.00 | 0.00 | 53 | 1008.0 |
| 20260505013030 | 63 | 169 | 3.0 | 12.0 | 0.00 | 0.00 | 0.00 | 52 | 1008.0 |
| 20260505012512 | 63 | 171 | 5.0 | 11.0 | 0.00 | 0.00 | 0.00 | 52 | 1008.0 |
| 20260505012012 | 63 | 188 | 3.0 | 10.0 | 0.00 | 0.00 | 0.00 | 52 | 1008.0 |
| 20260505011530 | 63 | 187 | 5.0 | 10.0 | 0.00 | 0.00 | 0.00 | 51 | 1008.0 |
| 20260505011013 | 63 | 207 | 5.0 | 11.0 | 0.00 | 0.00 | 0.00 | 51 | 1008.0 |
| 20260505010509 | 64 | 180 | 7.0 | 11.0 | 0.00 | 0.00 | 0.00 | 51 | 1007.9 |
| 20260505010027 | 63 | 159 | 5.0 | 10.0 | 0.00 | 0.00 | 0.00 | 50 | 1007.9 |
| 20260505005509 | 63 | 192 | 4.0 | 10.0 | 0.00 | 0.00 | 0.00 | 51 | 1007.9 |
| 20260505005012 | 64 | 201 | 5.0 | 10.0 | 0.00 | 0.00 | 0.00 | 50 | 1007.8 |
| 20260505004528 | 63 | 199 | 5.0 | 10.0 | 0.00 | 0.00 | 0.00 | 50 | 1007.7 |
| 20260505004010 | 63 | 192 | 5.0 | 10.0 | 0.00 | 0.00 | 0.00 | 50 | 1007.7 |
| 20260505003516 | 64 | 188 | 3.0 | 10.0 | 0.00 | 0.00 | 0.00 | 50 | 1007.6 |
| 20260505003027 | 64 | 182 | 6.0 | 10.0 | 0.00 | 0.00 | 0.00 | 49 | 1007.4 |
| 20260505002512 | 64 | 179 | 3.0 | 12.0 | 0.00 | 0.00 | 0.00 | 50 | 1007.3 |
| 20260505002013 | 64 | 173 | 4.0 | 13.0 | 0.00 | 0.00 | 0.00 | 49 | 1007.2 |
| 20260505001528 | 63 | 195 | 5.0 | 13.0 | 0.00 | 0.00 | 0.00 | 50 | 1007.2 |
| 20260505001012 | 63 | 190 | 2.0 | 7.0 | 0.00 | 0.00 | 0.00 | 51 | 1007.3 |
| 20260505000513 | 63 | 220 | 3.0 | 7.0 | 0.00 | 0.00 | 0.00 | 50 | 1007.3 |
| 20260505000042 | 64 | 189 | 2.0 | 5.0 | 0.00 | 0.00 | 0.00 | 49 | 1007.1 |
| 20260504235510 | 64 | 184 | 1.0 | 10.0 | 0.00 | 0.00 | 0.00 | 50 | 1007.1 |
| 20260504235012 | 65 | 184 | 2.0 | 10.0 | 0.00 | 0.00 | 0.00 | 50 | 1007.1 |
| 20260504234528 | 65 | 181 | 4.0 | 9.0 | 0.00 | 0.00 | 0.00 | 47 | 1007.1 |
| 20260504234012 | 65 | 196 | 5.0 | 9.0 | 0.00 | 0.00 | 0.00 | 47 | 1007.0 |
| 20260504233512 | 65 | 163 | 3.0 | 7.0 | 0.00 | 0.00 | 0.00 | 47 | 1007.0 |
| 20260504233030 | 66 | 190 | 4.0 | 8.0 | 0.00 | 0.00 | 0.00 | 47 | 1006.9 |
| 20260504232511 | 66 | 198 | 3.0 | 10.0 | 0.00 | 0.00 | 0.00 | 46 | 1007.0 |
| 20260504232012 | 67 | 216 | 5.0 | 16.0 | 0.00 | 0.00 | 0.00 | 45 | 1006.9 |
| 20260504231530 | 67 | 204 | 6.0 | 16.0 | 0.00 | 0.00 | 0.00 | 46 | 1007.0 |
| 20260504231019 | 67 | 203 | 5.0 | 11.0 | 0.00 | 0.00 | 0.00 | 44 | 1006.9 |
| 20260504230511 | 68 | 205 | 5.0 | 13.0 | 0.00 | 0.00 | 0.00 | 43 | 1006.8 |
| 20260504230028 | 68 | 185 | 7.0 | 13.0 | 0.00 | 0.00 | 0.00 | 43 | 1006.7 |
| 20260504225514 | 68 | 201 | 6.0 | 11.0 | 0.00 | 0.00 | 0.00 | 43 | 1006.8 |
| 20260504225012 | 68 | 225 | 5.0 | 11.0 | 0.00 | 0.00 | 0.00 | 43 | 1006.7 |
| 20260504224528 | 68 | 243 | 3.0 | 11.0 | 0.00 | 0.00 | 0.00 | 45 | 1006.7 |
| 20260504224013 | 69 | 188 | 5.0 | 14.0 | 0.00 | 0.00 | 0.00 | 43 | 1006.6 |